#timestamp,LO_Frequency,Hit,StdDev 
1670425215.3,286046995.3,N
1670425235.1,286046992.3,N
1670425255.9,286046994.1,N
1670425275.7,286046998.5,N
1670425295.5,286047000.2,N
1670425315.4,286046998.2,N
1670425335.2,286047007.1,N
1670425355.1,286047009.6,N
1670425356.0,286047009.6,N
1670425375.8,286047012.5,N
1670425395.7,286047011.9,N
1670425415.5,286047013.0,N
1670425435.3,286047012.6,N
1670425455.2,286047015.2,N
1670425475.0,286047021.6,Y
1670425475.9,286047021.6,P
1670425495.8,286047011.4,N
1670425515.6,286047010.5,N
1670425535.4,286047011.9,N
1670425555.3,286047016.7,N
1670425575.1,286047012.5,N
1670425595.9,286047017.4,Y
1670425615.7,286047006.0,P
1670425635.5,286047005.3,N
1670425655.4,286047005.0,N
1670425675.2,286046998.2,N
1670425695.0,286046996.6,N
1670425695.9,286046996.6,N
1670425715.8,286046999.4,N
1670425735.6,286047000.3,N
1670425755.5,286047002.5,N
1670425775.3,286046999.5,N
1670425795.1,286046995.2,N
1670425815.9,286046999.4,N
1670425835.7,286046995.8,N
1670425855.5,286046992.7,N
1670425875.4,286046990.6,N
1670425895.2,286046995.9,N
1670425915.0,286046997.0,N
1670425916.0,286046997.0,N
1670425935.8,286046995.0,N
1670425955.6,286046993.1,N
1670425975.5,286046994.7,N
1670425995.3,286046992.9,N
1670426015.1,286046993.3,N
1670426035.9,286046994.2,N
1670426055.7,286046994.0,N
1670426075.6,286046996.4,N
1670426095.4,286046992.8,N
1670426115.2,286046992.5,N
1670426135.1,286046991.0,N
1670426136.0,286046991.0,N
1670426155.8,286046988.8,N
1670426175.7,286046996.9,N
1670426195.5,286047000.8,N
1670426215.4,286047005.4,N
1670426235.2,286047002.5,N
1670426255.0,286047005.3,N
1670426255.9,286047005.3,N
1670426275.8,286047008.5,N
1670426295.6,286047005.1,N
1670426315.5,286047003.5,N
1670426335.3,286046996.5,N
1670426355.2,286046995.7,N
1670426375.9,286047000.9,N
1670426395.7,286047005.2,N
1670426415.6,286046999.4,N
1670426435.4,286046995.5,N
1670426455.2,286046995.0,N
1670426475.1,286047002.4,N
1670426476.0,286047002.4,N
1670426495.8,286047003.4,N
1670426515.7,286047004.6,N
1670426535.5,286047004.3,N
1670426555.3,286046998.2,N
1670426575.2,286046996.9,N
1670426595.0,286047007.0,N
1670426595.9,286047007.0,N
1670426615.7,286047007.3,N
1670426635.6,286047005.2,N
1670426655.4,286047005.2,N
1670426675.3,286047000.5,N
1670426695.1,286047002.8,N
1670426696.0,286047002.8,N
1670426715.8,286046999.3,N
1670426735.7,286046999.5,N
1670426755.5,286046998.6,N
1670426775.3,286046996.8,N
1670426795.2,286046996.9,N
1670426815.0,286046997.9,N
1670426815.9,286046997.9,N
1670426835.8,286046996.0,N
1670426855.6,286046996.0,N
1670426875.4,286046992.7,N
1670426895.3,286046992.5,N
1670426915.1,286046996.7,N
1670426935.8,286046995.8,N
1670426955.7,286047001.1,N
1670426975.5,286047003.7,N
1670426995.4,286047006.6,N
1670427015.2,286047003.3,N
1670427035.0,286047008.3,N
1670427035.9,286047008.3,N
1670427055.8,286047007.3,N
1670427075.6,286047005.4,N
1670427095.4,286047007.8,N
1670427115.3,286047004.8,N
1670427135.1,286047005.6,N
1670427155.9,286047005.6,N
1670427175.7,286047002.0,N
1670427195.5,286047005.1,N
1670427215.4,286047006.7,N
1670427235.2,286047005.9,N
1670427255.0,286047003.9,N
1670427255.9,286047003.9,N
1670427275.8,286047004.3,N
1670427295.6,286047006.4,N
1670427315.5,286047007.5,N
1670427335.3,286047007.1,N
1670427355.1,286047006.2,N
1670427375.9,286047005.2,N
1670427395.7,286047009.1,N
1670427415.5,286047008.9,N
1670427435.4,286047004.0,N
1670427455.2,286047001.8,N
1670427475.0,286047003.5,N
1670427476.0,286047003.5,N
1670427495.8,286047004.8,N
1670427515.6,286047012.4,Y
1670427535.5,286047007.2,P
1670427555.3,286047005.1,P
1670427575.1,286046998.4,N
1670427595.9,286046999.7,N
1670427615.7,286047000.5,N
1670427635.6,286046997.2,N
1670427655.4,286046996.5,N
1670427675.2,286046999.1,N
1670427695.1,286047001.1,N
1670427696.0,286047001.1,N
1670427715.8,286047004.4,N
1670427735.6,286047006.3,N
1670427755.5,286047006.4,N
1670427775.3,286047004.1,N
1670427795.2,286047001.9,N
1670427815.9,286047002.2,N
1670427835.7,286047004.3,N
1670427855.6,286047003.0,N
1670427875.4,286047009.9,Y
1670427895.2,286047005.2,P
1670427915.1,286046997.9,N
1670427916.0,286046997.9,N
1670427935.8,286046997.0,N
1670427955.7,286047005.3,N
1670427975.5,286047006.7,N
1670427995.3,286047002.7,N
1670428015.2,286046998.9,N
1670428035.0,286047000.7,N
1670428035.9,286047000.7,N
1670428055.7,286046999.1,N
1670428075.6,286046995.1,N
1670428095.4,286046999.8,N
1670428115.3,286046999.2,N
1670428135.1,286046993.5,N
1670428136.0,286046993.5,N
1670428155.8,286046995.2,N
1670428175.7,286046998.6,N
1670428195.5,286047001.1,N
1670428215.3,286046998.6,N
1670428235.2,286046998.1,N
1670428255.0,286047000.7,N
1670428255.9,286047000.7,N
1670428275.8,286047001.3,N
1670428295.6,286046997.8,N
1670428315.4,286047000.6,N
1670428335.3,286046998.3,N
1670428355.1,286047004.1,N
1670428375.8,286047001.4,N
1670428395.7,286047005.6,N
1670428415.5,286047000.1,N
1670428435.4,286046998.8,N
1670428455.2,286047005.8,N
1670428475.0,286047006.2,N
1670428475.9,286047006.2,N
1670428495.8,286047022.2,Y
1670428515.6,286047012.2,P
1670428535.4,286047007.8,N
1670428555.3,286047008.4,N
1670428575.1,286047008.9,N
1670428595.9,286047008.3,N
1670428615.7,286047008.0,N
1670428635.5,286047004.7,N
1670428655.4,286047011.3,Y
1670428675.2,286047007.4,P
1670428695.0,286047006.4,P
1670428695.9,286047006.4,P
1670428715.8,286047001.0,N
1670428735.6,286046995.3,N
1670428755.5,286046996.8,N
1670428775.3,286046997.0,N
1670428795.1,286046997.5,N
